Pipestone, MN

10:45 AM CDT on October 18, 2017 (GMT -0500)
Pipestone Municipal

Weather History for KPQN - July, 2013

Change the Weather History Date:

Tuesday, July 16, 2013

  Actual Average Record
Temperature  
Mean Temperature 76 °F -  
Max Temperature 84 °F 80 °F 93 °F (2006)
Min Temperature 69 °F 60 °F 50 °F (2014)
Cooling Degree Days 12    
Growing Degree Days 26 (Base 50)    
Moisture  
Dew Point 65 °F    
Average Humidity 70    
Maximum Humidity 88    
Minimum Humidity 48    
Precipitation  
Precipitation 0.00 in - - ()
Sea Level Pressure  
Sea Level Pressure 30.22 in    
Wind  
Wind Speed 8 mph (SSW)    
Max Wind Speed 17 mph    
Max Gust Speed 22 mph    
Visibility 10 miles    
Events Thunderstorm    
Averages and records for this station are not official NWS values.
T = Trace of Precipitation, MM = Missing Value Source: NWS Daily Summary

Daily Weather History Graph

Daily Weather History Graph

Search for Another Location

Airport or City:

Trip Planner

Search our weather history database for the weather conditions in past years. The results will help you decide how hot, cold, wet, or windy it might be!

Date:

Astronomy

Jul. 16, 2013 Rise Set
Actual Time 5:57 AM CDT 9:04 PM CDT
Civil Twilight 5:22 AM CDT 9:39 PM CDT
Nautical Twilight 4:37 AM CDT 10:23 PM CDT
Astronomical Twilight 3:43 AM CDT 11:17 PM CDT
Moon 2:42 PM CDT (7/16) 12:34 AM CDT (7/16)
Length of Visible Light 16h 16m
Length of Day
15h 07m
First Quarter, 56% of the Moon is Illuminated
Jul 16
First Quarter
Jul 22
Full
Jul 29
Last Quarter
Aug 6
New
Aug 14
First Quarter

Hourly Weather History & Observations

Time (CDT) Temp. Heat Index Dew Point Humidity Pressure Visibility Wind Dir Wind Speed Gust Speed Precip Events Conditions
12:13 AM 73.4 °F - 66.2 °F 78% 30.18 in 10.0 mi SSE 5.8 mph - N/A   Clear
12:34 AM 73.4 °F - 66.2 °F 78% 30.18 in 10.0 mi SSE 6.9 mph - N/A   Clear
12:53 AM 73.4 °F - 66.2 °F 78% 30.18 in 10.0 mi South 6.9 mph - N/A   Clear
1:13 AM 73.4 °F - 66.2 °F 78% 30.18 in 10.0 mi South 8.1 mph - N/A   Clear
1:33 AM 73.4 °F - 66.2 °F 78% 30.19 in 10.0 mi South 8.1 mph - N/A   Clear
1:53 AM 71.6 °F - 66.2 °F 83% 30.19 in 10.0 mi South 6.9 mph - N/A   Clear
2:13 AM 71.6 °F - 66.2 °F 83% 30.19 in 10.0 mi South 8.1 mph - N/A   Clear
2:33 AM 71.6 °F - 66.2 °F 83% 30.19 in 10.0 mi South 6.9 mph - N/A   Clear
2:53 AM 71.6 °F - 66.2 °F 83% 30.18 in 10.0 mi South 6.9 mph - N/A   Clear
3:13 AM 71.6 °F - 66.2 °F 83% 30.18 in 10.0 mi South 5.8 mph - N/A   Clear
3:33 AM 69.8 °F - 66.2 °F 88% 30.18 in 10.0 mi South 4.6 mph - N/A   Clear
3:53 AM 69.8 °F - 66.2 °F 88% 30.18 in 7.0 mi South 5.8 mph - N/A   Clear
4:14 AM 69.8 °F - 66.2 °F 88% 30.18 in 7.0 mi South 4.6 mph - N/A   Clear
4:33 AM 69.8 °F - 66.2 °F 88% 30.18 in 7.0 mi South 5.8 mph - N/A   Clear
4:53 AM 69.8 °F - 66.2 °F 88% 30.18 in 7.0 mi South 5.8 mph - N/A   Clear
5:14 AM 69.8 °F - 66.2 °F 88% 30.18 in 7.0 mi SSW 6.9 mph - N/A   Clear
5:33 AM 71.6 °F - 66.2 °F 83% 30.18 in 10.0 mi SSW 8.1 mph - N/A   Clear
5:53 AM 69.8 °F - 66.2 °F 88% 30.19 in 7.0 mi South 6.9 mph - N/A   Clear
6:13 AM 69.8 °F - 66.2 °F 88% 30.19 in 7.0 mi South 5.8 mph - N/A   Clear
6:33 AM 69.8 °F - 66.2 °F 88% 30.20 in 7.0 mi South 4.6 mph - N/A   Clear
6:53 AM 69.8 °F - 66.2 °F 88% 30.21 in 7.0 mi South 4.6 mph - N/A   Clear
7:13 AM 69.8 °F - 66.2 °F 88% 30.21 in 5.0 mi South 3.5 mph - N/A Thunderstorm Clear
7:33 AM 71.6 °F - 68.0 °F 88% 30.22 in 7.0 mi SSW 5.8 mph - N/A Thunderstorm Thunderstorm
7:53 AM 71.6 °F - 68.0 °F 88% 30.22 in 7.0 mi SSW 8.1 mph - N/A   Clear
8:13 AM 73.4 °F - 68.0 °F 83% 30.23 in 10.0 mi SSW 8.1 mph - N/A   Clear
8:34 AM 73.4 °F - 68.0 °F 83% 30.23 in 10.0 mi SSW 9.2 mph - N/A   Clear
8:53 AM 75.2 °F - 68.0 °F 78% 30.24 in 10.0 mi SW 8.1 mph - N/A   Clear
9:13 AM 75.2 °F - 66.2 °F 73% 30.24 in 10.0 mi SW 8.1 mph - N/A   Clear
9:34 AM 77.0 °F - 66.2 °F 69% 30.24 in 10.0 mi SW 9.2 mph - N/A   Clear
9:53 AM 77.0 °F - 66.2 °F 69% 30.24 in 10.0 mi SW 11.5 mph 16.1 mph N/A   Clear
10:13 AM 78.8 °F - 66.2 °F 65% 30.24 in 10.0 mi SSW 10.4 mph - N/A   Clear
10:34 AM 78.8 °F - 66.2 °F 65% 30.24 in 10.0 mi SW 10.4 mph - N/A   Clear
10:53 AM 78.8 °F - 66.2 °F 65% 30.24 in 10.0 mi SW 12.7 mph - N/A   Clear
11:13 AM 80.6 °F 82.3 °F 64.4 °F 58% 30.25 in 10.0 mi SW 11.5 mph - N/A   Clear
11:33 AM 80.6 °F 82.3 °F 64.4 °F 58% 30.25 in 10.0 mi SW 11.5 mph 16.1 mph N/A   Clear
11:53 AM 80.6 °F 82.3 °F 64.4 °F 58% 30.25 in 10.0 mi SW 12.7 mph - N/A   Clear
12:14 PM 82.4 °F 83.9 °F 64.4 °F 54% 30.25 in 10.0 mi SSW 12.7 mph 17.3 mph N/A Thunderstorm Clear
12:33 PM 82.4 °F 83.9 °F 64.4 °F 54% 30.25 in 10.0 mi SW 13.8 mph - N/A   Clear
12:53 PM 82.4 °F 83.4 °F 62.6 °F 51% 30.25 in 10.0 mi SSW 16.1 mph - N/A   Clear
1:14 PM 82.4 °F 83.9 °F 64.4 °F 54% 30.25 in 10.0 mi SW 15.0 mph - N/A   Clear
1:33 PM 82.4 °F 83.4 °F 62.6 °F 51% 30.25 in 10.0 mi SW 16.1 mph 19.6 mph N/A   Clear
1:53 PM 84.2 °F 85.0 °F 62.6 °F 48% 30.25 in 10.0 mi SW 16.1 mph - N/A   Clear
2:13 PM 84.2 °F 85.6 °F 64.4 °F 51% 30.24 in 10.0 mi SW 11.5 mph - N/A   Clear
2:33 PM 84.2 °F 86.6 °F 66.2 °F 55% 30.24 in 10.0 mi SSW 12.7 mph - N/A   Clear
2:53 PM 84.2 °F 85.6 °F 64.4 °F 51% 30.24 in 10.0 mi SW 15.0 mph 20.7 mph N/A   Clear
3:13 PM 84.2 °F 85.6 °F 64.4 °F 51% 30.24 in 10.0 mi SSW 11.5 mph - N/A   Clear
3:33 PM 84.2 °F 85.0 °F 62.6 °F 48% 30.24 in 10.0 mi SSW 17.3 mph - N/A   Clear
3:53 PM 84.2 °F 85.6 °F 64.4 °F 51% 30.24 in 10.0 mi SW 13.8 mph - N/A   Clear
4:13 PM 84.2 °F 85.6 °F 64.4 °F 51% 30.23 in 10.0 mi SSW 15.0 mph - N/A   Clear
4:33 PM 84.2 °F 85.6 °F 64.4 °F 51% 30.23 in 10.0 mi SSW 15.0 mph 19.6 mph N/A   Clear
4:53 PM 84.2 °F 85.6 °F 64.4 °F 51% 30.23 in 10.0 mi SW 13.8 mph - N/A   Clear
5:13 PM 84.2 °F 85.0 °F 62.6 °F 48% 30.23 in 10.0 mi SSW 15.0 mph 21.9 mph N/A   Clear
5:33 PM 84.2 °F 85.0 °F 62.6 °F 48% 30.23 in 10.0 mi SW 13.8 mph - N/A   Clear
5:53 PM 84.2 °F 85.0 °F 62.6 °F 48% 30.23 in 10.0 mi SW 13.8 mph - N/A   Clear
6:13 PM 84.2 °F 85.0 °F 62.6 °F 48% 30.23 in 10.0 mi SW 15.0 mph - N/A   Clear
6:33 PM 84.2 °F 85.6 °F 64.4 °F 51% 30.22 in 10.0 mi SW 10.4 mph 16.1 mph N/A   Clear
6:53 PM 82.4 °F 83.9 °F 64.4 °F 54% 30.22 in 10.0 mi SW 10.4 mph - N/A   Clear
7:13 PM 82.4 °F 84.6 °F 66.2 °F 58% 30.22 in 10.0 mi SSW 10.4 mph - N/A   Clear
7:33 PM 82.4 °F 84.6 °F 66.2 °F 58% 30.22 in 10.0 mi SSW 8.1 mph - N/A   Clear
7:53 PM 80.6 °F 82.7 °F 66.2 °F 61% 30.22 in 10.0 mi SSW 6.9 mph - N/A   Clear
8:13 PM 78.8 °F - 66.2 °F 65% 30.23 in 10.0 mi SSW 4.6 mph - N/A   Clear
8:33 PM 78.8 °F - 68.0 °F 69% 30.23 in 10.0 mi SSW 4.6 mph - N/A   Clear
8:53 PM 77.0 °F - 68.0 °F 74% 30.23 in 10.0 mi South 6.9 mph - N/A   Clear
9:13 PM 75.2 °F - 68.0 °F 78% 30.23 in 10.0 mi South 6.9 mph - N/A   Clear
9:33 PM 73.4 °F - 66.2 °F 78% 30.23 in 10.0 mi South 8.1 mph - N/A   Clear
9:53 PM 73.4 °F - 66.2 °F 78% 30.24 in 10.0 mi South 4.6 mph - N/A   Clear
10:13 PM 73.4 °F - 64.4 °F 73% 30.25 in 10.0 mi South 8.1 mph - N/A   Clear
10:33 PM 71.6 °F - 64.4 °F 78% 30.25 in 10.0 mi SSW 5.8 mph - N/A   Clear
10:53 PM 71.6 °F - 64.4 °F 78% 30.26 in 10.0 mi SSW 5.8 mph - N/A   Clear
11:13 PM 71.6 °F - 64.4 °F 78% 30.26 in 10.0 mi SSW 3.5 mph - N/A   Clear
11:33 PM 71.6 °F - 64.4 °F 78% 30.26 in 10.0 mi SSW 4.6 mph - N/A   Clear
11:53 PM 69.8 °F - 64.4 °F 83% 30.26 in 10.0 mi SSW 3.5 mph - N/A   Clear